Weather History for Yuma MCAS, AZ

Change the Weather History Date:

Monday, May 7, 2012

  Actual Average Record
Temperature  
Mean Temperature 80 °F 79 °F  
Max Temperature 96 °F 93 °F 108 °F (1989)
Min Temperature 63 °F 65 °F 46 °F (1921)
Degree Days  
Heating Degree Days 0 0  
Month to date heating degree days 0 0  
Since 1 July heating degree days 697 686  
Cooling Degree Days 15 14  
Month to date cooling degree days 99 92  
Year to date cooling degree days 489 498  
Growing Degree Days 30 (Base 50)    
Moisture  
Dew Point 25 °F    
Average Humidity 26    
Maximum Humidity 48    
Minimum Humidity 3    
Precipitation  
Precipitation 0.00 in 0.00 in 0.09 in (1976)
Month to date precipitation 0.00 0.02  
Year to date precipitation 0.09 1.26  
Sea Level Pressure  
Sea Level Pressure 29.80 in    
Wind  
Wind Speed 7 mph (WNW)    
Max Wind Speed 20 mph    
Max Gust Speed 25 mph    
Visibility 10 miles    
Events      
T = Trace of Precipitation, MM = Missing Value Source: NWS Daily Summary

Daily Weather History Graph

Daily Weather History Graph

Search for Another Location

Airport:

Trip Planner

Search our weather history database for the weather conditions in past years. The results will help you decide how hot, cold, wet, or windy it might be!

Date:

Astronomy

May. 07, 2012 Rise Set
Actual Time 5:45 AM MST 7:24 PM MST
Civil Twilight 5:18 AM MST 7:51 PM MST
Nautical Twilight 4:46 AM MST 8:23 PM MST
Astronomical Twilight 4:13 AM MST 8:57 PM MST
Moon 9:36 PM MST (5/7) 6:59 AM MST (5/7)
Length of Visible Light 14h 32m
Length of Day
13h 39m
Waning Gibbous, 96% of the Moon is Illuminated
May 7
Waning Gibbous
May 12
Last Quarter
May 20
New
May 28
First Quarter
Jun 4
Full

Hourly Weather History & Observations

Time (MST) Temp. Dew Point Humidity Pressure Visibility Wind Dir Wind Speed Gust Speed Precip Events Conditions
12:55 AM 70.0 °F 45.0 °F 41% 29.80 in 10.0 mi South 6.9 mph - N/A   Clear
1:55 AM 68.0 °F 46.0 °F 45% 29.80 in 10.0 mi South 5.8 mph - N/A   Clear
2:55 AM 66.0 °F 45.0 °F 47% 29.80 in 10.0 mi South 3.5 mph - N/A   Clear
3:55 AM 64.9 °F 44.1 °F 47% 29.80 in 10.0 mi SSE 6.9 mph - N/A   Clear
4:00 AM - - N/A% - - North - - N/A   Unknown
4:55 AM 64.0 °F 42.1 °F 45% 29.81 in 10.0 mi South 3.5 mph - N/A   Clear
5:55 AM 63.0 °F 42.1 °F 46% 29.81 in 10.0 mi South 6.9 mph - N/A   Clear
6:55 AM 66.9 °F 45.0 °F 45% 29.83 in 10.0 mi SSE 6.9 mph - N/A   Clear
7:55 AM 69.1 °F 46.9 °F 45% 29.85 in 10.0 mi Calm Calm - N/A   Clear
8:55 AM 75.0 °F 48.0 °F 38% 29.86 in 10.0 mi Variable 3.5 mph - N/A   Clear
9:55 AM 82.0 °F 36.0 °F 19% 29.86 in 10.0 mi Variable 5.8 mph - N/A   Clear
10:55 AM 90.0 °F 7.0 °F 4% 29.85 in 10.0 mi North 17.3 mph - N/A   Clear
11:55 AM 93.0 °F 6.1 °F 4% 29.84 in 10.0 mi North 13.8 mph 23.0 mph N/A   Clear
12:55 PM 95.0 °F 6.1 °F 4% 29.83 in 10.0 mi North 13.8 mph 21.9 mph N/A   Clear
1:55 PM 96.1 °F 5.0 °F 4% 29.81 in 10.0 mi NNE 12.7 mph - N/A   Clear
2:55 PM 95.0 °F 1.9 °F 4% 29.78 in 10.0 mi Variable 4.6 mph - N/A   Partly Cloudy
3:55 PM 95.0 °F 1.0 °F 4% 29.76 in 10.0 mi NNW 10.4 mph 21.9 mph N/A   Partly Cloudy
4:55 PM 95.0 °F 7.0 °F 4% 29.75 in 10.0 mi WNW 8.1 mph - N/A   Clear
5:55 PM 91.9 °F 18.0 °F 7% 29.74 in 10.0 mi West 10.4 mph - N/A   Clear
6:55 PM 89.1 °F 25.0 °F 10% 29.74 in 10.0 mi WSW 5.8 mph - N/A   Clear
7:55 PM 86.0 °F 26.1 °F 11% 29.75 in 10.0 mi Calm Calm - N/A   Clear
8:55 PM 84.9 °F 6.1 °F 5% 29.77 in 10.0 mi North 5.8 mph - N/A   Clear
9:55 PM 82.0 °F 9.0 °F 6% 29.79 in 10.0 mi NE 9.2 mph - N/A   Clear
10:00 PM - - N/A% - - North - - N/A   Unknown
10:08 PM - - N/A% - - North - - N/A   Unknown
10:55 PM 79.0 °F 12.0 °F 8% 29.79 in 10.0 mi NNE 4.6 mph - N/A   Clear
11:55 PM 75.0 °F 19.0 °F 12% 29.79 in 10.0 mi Calm Calm - N/A   Clear